Wind from 022 at 9 knots gusting 21

Air temperature -1.7° C
Dewpoint -2.5° C

Last reported at 2014-Apr-20 10:41 UTC.
Time now 2014-Apr-20 11:51 UTC

Location: N 48°02' W 053°13'.
View on Google Maps.

See reports from other nearby stations

Tides Stations Pressure Air Temp Water Temp Dewpoint Dewpoint depression Visibility Wind Speed Wind Dir Waves Ship positions

  
sailing weather and tide predictions

CW5193 New Chelsea NF CA weather

date/time (UTC)wind fromknots sea level pressurealtimeterstation pressurevisibilityair tempwater tempwave heightnotes
2014-Apr-20 10:41 022 9 gusting 21 -1.7
2014-Apr-20 10:31 024 13 gusting 26 -1.7
2014-Apr-20 10:21 360 13 gusting 21 -1.1
2014-Apr-20 10:11 030 11 gusting 20 -1.1
2014-Apr-20 10:02 024 10 gusting 18 -1.7
2014-Apr-20 09:51 034 12 gusting 17 -1.1
2014-Apr-20 09:41 032 9 gusting 14 -1.7
2014-Apr-20 09:31 009 5 gusting 13 -1.7
2014-Apr-20 09:21 331 4 gusting 14 -1.7
2014-Apr-20 09:11 321 3 gusting 13 -1.7
2014-Apr-20 09:01 026 5 gusting 14 -1.7
2014-Apr-20 08:51 055 9 gusting 18 -1.7
2014-Apr-20 08:41 355 6 gusting 15 -1.7
2014-Apr-20 08:31 028 11 gusting 18 -2.2
2014-Apr-20 08:21 049 9 gusting 18 -2.2
2014-Apr-20 08:11 355 10 gusting 18 -2.2
2014-Apr-20 08:01 010 10 gusting 18 -2.2
2014-Apr-20 07:51 056 12 gusting 19 -2.2
2014-Apr-20 07:42 024 10 gusting 19 -2.2
2014-Apr-20 07:31 022 6 gusting 19 -2.2
2014-Apr-20 07:22 048 8 gusting 17 -2.2
2014-Apr-20 07:11 017 12 gusting 20 -2.2
2014-Apr-20 07:01 038 9 gusting 19 -2.2
2014-Apr-20 06:51 017 7 gusting 16 -2.2
2014-Apr-20 06:41 022 6 gusting 16 -2.2
2014-Apr-20 06:31 030 8 gusting 17 -2.2
2014-Apr-20 06:21 057 11 gusting 15 -1.7
2014-Apr-20 06:11 033 10 gusting 18 -1.7
2014-Apr-20 06:01 044 6 gusting 18 -1.7
2014-Apr-20 05:51 029 5 gusting 13 -1.7
2014-Apr-20 05:41 047 6 gusting 16 -2.2
2014-Apr-20 05:31 045 6 gusting 21 -1.7
2014-Apr-20 05:21 014 11 gusting 14 -1.7
2014-Apr-20 05:11 009 6 gusting 16 -1.7
2014-Apr-20 05:01 028 14 gusting 19 -1.7
2014-Apr-20 04:51 036 11 gusting 20 -1.7
2014-Apr-20 04:41 014 10 gusting 18 -1.7
2014-Apr-20 04:31 029 7 gusting 16 -1.7
2014-Apr-20 04:21 016 10 gusting 19 -1.7
2014-Apr-20 04:11 029 12 gusting 17 -1.7
2014-Apr-20 04:01 013 10 gusting 15 -1.7
2014-Apr-20 03:51 018 12 gusting 19 -1.7
2014-Apr-20 03:41 034 13 gusting 19 -1.7
2014-Apr-20 03:31 360 13 gusting 18 -1.7
2014-Apr-20 03:21 039 10 gusting 16 -1.7
2014-Apr-20 03:11 031 8 gusting 19 -1.7
2014-Apr-20 03:01 036 13 gusting 19 -1.7
2014-Apr-20 02:51 048 13 gusting 18 -1.7
2014-Apr-20 02:41 034 15 gusting 20 -1.7
2014-Apr-20 02:31 045 14 gusting 19 -1.7
2014-Apr-20 02:21 010 11 gusting 14 -1.1
2014-Apr-20 02:11 042 9 gusting 17 -1.7
2014-Apr-20 02:01 032 12 gusting 15 -1.7
2014-Apr-20 01:51 040 12 gusting 16 -1.7
2014-Apr-20 01:41 036 10 gusting 19 -1.1
2014-Apr-20 01:31 046 12 gusting 19 -1.1
2014-Apr-20 01:21 034 15 gusting 24 -1.1
2014-Apr-20 01:11 045 18 gusting 21 -1.1
2014-Apr-20 01:01 042 14 gusting 22 -1.1
2014-Apr-20 00:51 048 15 gusting 24 -1.1
2014-Apr-20 00:41 039 18 gusting 24 -1.1
2014-Apr-20 00:31 048 19 gusting 23 -1.1
2014-Apr-20 00:21 043 14 gusting 20 -1.1
2014-Apr-20 00:11 049 17 gusting 20 -1.1
2014-Apr-20 00:01 057 13 gusting 19 -1.1
2014-Apr-19 23:51 041 16 gusting 21 -1.1
2014-Apr-19 23:41 050 15 gusting 20 -1.1
2014-Apr-19 23:31 061 16 gusting 21 -1.1
2014-Apr-19 23:21 053 16 gusting 20 -1.1
2014-Apr-19 23:11 051 16 gusting 19 -1.1
2014-Apr-19 23:01 055 16 gusting 19 -1.1
2014-Apr-19 22:51 051 17 gusting 19 -0.6
2014-Apr-19 22:41 054 13 gusting 19 -0.6
2014-Apr-19 22:31 036 14 gusting 19 -0.6
2014-Apr-19 22:21 058 17 gusting 21 -0.6
2014-Apr-19 22:11 058 17 gusting 20 -0.6
2014-Apr-19 22:01 063 16 gusting 20 -0.6
2014-Apr-19 21:51 054 17 gusting 21 -0.6
2014-Apr-19 21:41 063 19 gusting 22 -0.6
2014-Apr-19 21:31 059 20 gusting 22 -0.6
2014-Apr-19 21:21 062 18 gusting 22 -0.6
2014-Apr-19 21:11 065 17 gusting 21 -0.6
2014-Apr-19 21:01 063 18 gusting 20 -0.6
2014-Apr-19 20:51 067 18 gusting 20 -0.6
2014-Apr-19 20:41 064 17 gusting 19 -0.6
2014-Apr-19 20:31 061 16 gusting 19 -0.6
2014-Apr-19 20:21 061 16 gusting 21 -0.6
2014-Apr-19 20:11 070 17 gusting 20 -0.6
2014-Apr-19 20:01 059 18 gusting 20 -0.6
2014-Apr-19 19:51 067 16 gusting 19 -0.6
2014-Apr-19 19:41 066 16 gusting 19 -0.6
2014-Apr-19 19:31 072 14 gusting 19 -0.6
2014-Apr-19 19:21 064 13 gusting 17 -0.6
2014-Apr-19 19:11 065 13 gusting 16 -0.6
2014-Apr-19 19:01 067 12 gusting 15 -0.6
2014-Apr-19 18:51 069 10 gusting 18 -0.6
2014-Apr-19 18:41 067 11 gusting 17 -0.6
2014-Apr-19 18:31 076 13 gusting 17 -0.6
2014-Apr-19 18:21 067 12 gusting 15 -0.6
2014-Apr-19 18:11 079 10 gusting 17 -0.6
2014-Apr-19 18:01 075 12 gusting 15 -0.6
2014-Apr-19 17:51 083 13 gusting 15 -0.0
2014-Apr-19 17:41 080 9 gusting 16 -0.0
2014-Apr-19 17:31 086 10 gusting 13 -0.0
2014-Apr-19 17:21 099 10 gusting 18 -0.0
2014-Apr-19 17:11 084 9 gusting 15 -0.0
2014-Apr-19 17:01 087 8 gusting 12 -0.0
2014-Apr-19 16:51 085 10 gusting 12 -0.0
2014-Apr-19 16:41 106 6 gusting 11 -0.0
2014-Apr-19 16:31 121 8 gusting 12 -0.0
2014-Apr-19 16:21 128 9 gusting 13 -0.0
2014-Apr-19 16:11 114 6 gusting 11 -0.6
2014-Apr-19 16:01 111 4 gusting 12 -0.6
2014-Apr-19 15:51 090 4 gusting 12 -0.6
2014-Apr-19 15:41 101 6 gusting 14 -0.6
2014-Apr-19 15:31 161 7 gusting 15 -0.0
2014-Apr-19 15:21 142 6 gusting 13 -0.0
2014-Apr-19 15:11 134 10 gusting 13 -0.0
2014-Apr-19 15:01 136 8 gusting 13 -0.0
2014-Apr-19 14:51 121 4 gusting 14 -0.0
2014-Apr-19 14:41 147 7 gusting 13 0.6
2014-Apr-19 14:31 193 6 gusting 17 -0.0
2014-Apr-19 14:21 256 8 gusting 16 -0.0
2014-Apr-19 14:11 175 6 gusting 16 -0.0
2014-Apr-19 14:01 096 5 gusting 13 -0.0
2014-Apr-19 13:51 161 5 gusting 13 -0.0
2014-Apr-19 13:41 136 6 gusting 12 -0.0
2014-Apr-19 13:31 158 4 gusting 11 -0.0
2014-Apr-19 13:21 163 10 gusting 13 -0.0
2014-Apr-19 13:11 132 6 gusting 11 -0.0
2014-Apr-19 13:01 128 8 gusting 12 -0.0
2014-Apr-19 12:51 160 3 gusting 9 -0.0
2014-Apr-19 12:41 106 7 gusting 10 -0.0
2014-Apr-19 12:31 134 4 gusting 11 -0.0
2014-Apr-19 12:21 103 7 gusting 10 -0.6
2014-Apr-19 12:11 176 2 gusting 12 -0.0
2014-Apr-19 12:01 156 6 gusting 9 -0.6
2014-Apr-19 10:41 179 6 gusting 12 -1.1
2014-Apr-19 10:31 174 3 gusting 10 -1.1
2014-Apr-19 10:21 142 6 gusting 10 -1.7
2014-Apr-19 10:11 167 2 gusting 4 -1.7
2014-Apr-19 10:01 240 -2.2
2014-Apr-19 09:51 240 -2.2
2014-Apr-19 09:41 240 -2.2
2014-Apr-19 09:31 240 -2.8
2014-Apr-19 09:21 240 -2.8
2014-Apr-19 09:11 240 -2.8
2014-Apr-19 09:01 240 -2.8
2014-Apr-19 08:51 240 -3.3
2014-Apr-19 08:41 240 -3.3
2014-Apr-19 08:31 240 -3.3
2014-Apr-19 08:21 240 -3.3
2014-Apr-19 08:11 240 -2.8
2014-Apr-19 08:01 240 -2.8
2014-Apr-19 07:51 240 0 gusting 3 -2.8
2014-Apr-19 07:41 240 -2.8
2014-Apr-19 07:31 238 2 gusting 4 -2.8
2014-Apr-19 07:21 238 1 gusting 4 -2.8
2014-Apr-19 07:11 238 1 gusting 2 -2.8
2014-Apr-19 07:01 238 0 gusting 4 -2.8
2014-Apr-19 06:51 238 2 gusting 6 -2.8
2014-Apr-19 06:41 246 3 gusting 6 -2.8
2014-Apr-19 06:31 229 2 gusting 4 -2.8
2014-Apr-19 06:21 229 2 gusting 4 -2.8
2014-Apr-19 06:11 227 2 gusting 5 -2.8
2014-Apr-19 06:01 227 2 gusting 3 -2.8
2014-Apr-19 05:51 227 3 gusting 4 -2.8
2014-Apr-19 05:41 227 2 gusting 5 -2.8
2014-Apr-19 05:31 225 3 gusting 6 -2.8
2014-Apr-19 05:21 234 3 gusting 7 -2.8
2014-Apr-19 05:11 240 3 gusting 4 -2.8
2014-Apr-19 05:01 240 1 gusting 4 -2.8
2014-Apr-19 04:51 239 1 gusting 1 -2.8
2014-Apr-19 04:41 240 0 gusting 1 -2.2
2014-Apr-19 04:31 240 -2.2
2014-Apr-19 04:21 239 -2.2
2014-Apr-19 04:11 240 -2.2
2014-Apr-19 04:01 240 0 gusting 2 -2.2
2014-Apr-19 03:51 238 -2.2
2014-Apr-19 03:41 240 -2.2
2014-Apr-19 03:31 240 0 gusting 1 -2.2
2014-Apr-19 03:21 240 0 gusting 2 -1.7
2014-Apr-19 03:11 240 1 gusting 3 -1.7
2014-Apr-19 03:01 239 0 gusting 2 -1.7
2014-Apr-19 02:51 240 1 gusting 3 -1.7
2014-Apr-19 02:41 240 2 gusting 4 -1.7
2014-Apr-19 02:31 239 3 gusting 5 -1.7
2014-Apr-19 02:21 238 3 gusting 5 -1.7
2014-Apr-19 02:11 238 3 gusting 8 -1.7
2014-Apr-19 02:01 234 5 gusting 6 -1.7
2014-Apr-19 01:51 238 4 gusting 8 -1.1
2014-Apr-19 01:41 233 3 gusting 8 -1.1
2014-Apr-19 01:31 229 3 gusting 8 -1.1
2014-Apr-19 01:21 226 4 gusting 6 -1.1
2014-Apr-19 01:11 206 3 gusting 6 -1.1
2014-Apr-19 01:01 203 3 gusting 6 -0.6
2014-Apr-19 00:51 236 3 gusting 6 -0.6
2014-Apr-19 00:41 233 4 gusting 7 -0.6
2014-Apr-19 00:31 231 5 gusting 6 -0.6
2014-Apr-19 00:21 241 3 gusting 7 -0.6
2014-Apr-19 00:11 237 4 gusting 7 -0.6
2014-Apr-19 00:01 230 4 gusting 7 -0.0
2014-Apr-18 23:51 242 4 gusting 7 -0.0
2014-Apr-18 23:41 238 3 gusting 8 -0.0
2014-Apr-18 23:31 242 3 gusting 5 -0.0
2014-Apr-18 23:21 240 3 gusting 6 -0.0
2014-Apr-18 23:11 238 2 gusting 5 -0.0
2014-Apr-18 23:01 234 2 gusting 4 0.6
2014-Apr-18 22:51 234 3 gusting 5 0.6
2014-Apr-18 22:41 232 2 gusting 6 0.6
2014-Apr-18 22:31 226 4 gusting 7 1.1
2014-Apr-18 22:21 209 3 gusting 8 1.1
2014-Apr-18 22:11 238 5 gusting 9 1.7
2014-Apr-18 22:01 240 5 gusting 9 1.7
2014-Apr-18 21:51 233 6 gusting 13 1.7
2014-Apr-18 21:41 227 6 gusting 13 2.2
2014-Apr-18 21:31 230 9 gusting 13 2.2
2014-Apr-18 21:21 257 10 gusting 15 2.8
2014-Apr-18 21:11 245 13 gusting 17 2.8
2014-Apr-18 21:01 248 8 gusting 16 3.3
2014-Apr-18 20:51 247 11 gusting 17 3.3
2014-Apr-18 20:41 232 7 gusting 13 3.9
2014-Apr-18 20:31 236 7 gusting 13 3.9
2014-Apr-18 20:21 231 10 gusting 13 4.4
2014-Apr-18 20:11 223 8 gusting 16 4.4
2014-Apr-18 20:01 281 6 gusting 13 4.4
2014-Apr-18 19:51 261 7 gusting 13 4.4
2014-Apr-18 19:41 229 9 gusting 13 4.4
2014-Apr-18 19:31 225 6 gusting 12 3.9
2014-Apr-18 19:21 123 2 gusting 8 2.8
2014-Apr-18 19:11 149 1 gusting 10 2.2
2014-Apr-18 19:01 090 6 gusting 13 1.7
2014-Apr-18 18:51 048 6 gusting 9 2.2
2014-Apr-18 18:41 059 6 gusting 9 2.2
2014-Apr-18 18:31 061 6 gusting 9 2.2
2014-Apr-18 18:21 067 4 gusting 6 2.2
2014-Apr-18 18:11 038 7 gusting 8 2.2
2014-Apr-18 18:01 055 5 gusting 9 2.8
2014-Apr-18 17:51 360 3 gusting 10 3.3
2014-Apr-18 17:41 280 7 gusting 12 3.9
2014-Apr-18 17:31 277 7 gusting 13 3.9
2014-Apr-18 17:21 311 7 gusting 13 3.3
2014-Apr-18 17:11 317 7 gusting 13 3.9
2014-Apr-18 17:01 302 6 gusting 13 3.9
2014-Apr-18 16:51 247 6 gusting 12 3.9
2014-Apr-18 16:41 250 6 gusting 12 3.9
2014-Apr-18 16:31 270 5 gusting 14 3.3
2014-Apr-18 16:21 284 4 gusting 18 2.8
2014-Apr-18 16:11 256 6 gusting 14 3.3
2014-Apr-18 16:01 240 5 gusting 14 2.8
2014-Apr-18 15:51 312 10 gusting 14 2.2
2014-Apr-18 15:41 319 10 gusting 14 2.2
2014-Apr-18 15:31 323 6 gusting 13 2.2
2014-Apr-18 15:21 284 7 gusting 15 1.7
2014-Apr-18 15:11 311 11 gusting 16 1.1
2014-Apr-18 15:01 318 9 gusting 14 1.1
2014-Apr-18 14:51 317 10 gusting 13 0.6
2014-Apr-18 14:41 330 9 gusting 13 -0.0
2014-Apr-18 14:31 315 6 gusting 13 0.6
2014-Apr-18 14:21 310 5 gusting 12 0.6
2014-Apr-18 14:11 330 6 gusting 11 0.6
2014-Apr-18 14:01 306 6 gusting 11 -0.0
2014-Apr-18 13:51 321 4 gusting 10 -0.0
2014-Apr-18 13:41 313 5 gusting 11 -0.0
2014-Apr-18 13:31 321 5 gusting 9 -0.0
2014-Apr-18 13:21 009 5 gusting 10 -0.0
2014-Apr-18 13:11 327 5 gusting 9 -0.0
2014-Apr-18 13:01 296 5 gusting 10 -0.6
2014-Apr-18 12:51 319 6 gusting 10 -0.6
2014-Apr-18 12:41 288 6 gusting 9 -0.6
2014-Apr-18 12:31 014 5 gusting 8 -0.0
2014-Apr-18 12:21 313 6 gusting 9 -0.6
2014-Apr-18 12:11 342 4 gusting 9 -0.6
2014-Apr-18 12:01 072 3 gusting 4 -0.0
2014-Apr-18 11:51 160 1 gusting 3 -0.0
2014-Apr-18 11:41 159 3 gusting 5 -0.6
2014-Apr-18 11:31 194 3 gusting 6 -0.0
2014-Apr-18 11:21 213 0 gusting 4 -0.0
2014-Apr-18 11:11 184 1 gusting 2 -0.0
2014-Apr-18 11:01 183 1 gusting 4 -0.6